Simultaneous Nadir Overpasses (SNOs) Predictions

Prediction of SNOs between FY3D and TERRA Satellite Orbit:

Table of predicted SNOs for the next 14.0 days since TLE Epoch: 3/8/2025
Index Date (FY3D) Time (FY3D) Lat,Lon (FY3D) SZA (FY3D ) Date (TERRA) Time (TERRA) Lat,Lon (TERRA) SZA (TERRA ) Distance(km) Time Diff (sec)
1 03/09/2025 11:08:02 -77.50,-168.14 98.25 03/09/2025 11:09:11 -77.41,-166.12 98.36 49.73 69
2 03/09/2025 11:58:39 77.16, 0.75 81.39 03/09/2025 11:58:35 77.19, 0.71 81.41 3.08 4
3 03/11/2025 22:20:15 -77.20, 25.22 99.53 03/11/2025 22:20:48 -77.19, 25.12 99.55 2.84 33
4 03/11/2025 23:10:59 77.15,-167.25 80.41 03/11/2025 23:10:08 77.15,-167.34 80.41 2.03 51
5 03/14/2025 08:41:51 77.23, 49.75 79.54 03/14/2025 08:42:59 77.23, 49.67 79.54 2.06 68
6 03/14/2025 09:32:35 -77.21,-142.83 100.50 03/14/2025 09:32:20 -77.18,-142.85 100.53 3.52 15
7 03/16/2025 19:54:11 77.24,-118.33 78.58 03/16/2025 19:54:30 77.24,-118.22 78.57 2.74 19
8 03/16/2025 20:44:54 -77.18, 49.28 101.51 03/16/2025 20:43:51 -77.18, 49.25 101.50 0.97 63
9 03/19/2025 06:15:45 -77.27, -93.79 102.36 03/19/2025 06:16:40 -77.25, -93.77 102.39 2.78 55
10 03/19/2025 07:06:29 77.22, 73.75 77.58 03/19/2025 07:06:00 77.22, 73.78 77.57 1.12 29
11 03/21/2025 17:28:04 -77.26, 98.24 103.35 03/21/2025 17:28:10 -77.25, 98.32 103.36 2.24 6



Historial Predications of SNOs between FY3D and TERRA
